TimeMST,TemperatureF,Dew PointF,Humidity,Sea Level PressureIn,VisibilityMPH,Wind Direction,Wind SpeedMPH,Gust SpeedMPH,PrecipitationIn,Events,Conditions,WindDirDegrees,DateUTC
12:53 AM,6.1,-7.1,55,30.23,10.0,SW,5.8,-,N/A,,Mostly Cloudy,220,2013-01-14 07:53:00
1:53 AM,5.0,-8.0,55,30.24,10.0,Variable,4.6,-,N/A,,Mostly Cloudy,0,2013-01-14 08:53:00
2:53 AM,1.9,-9.0,60,30.26,10.0,WSW,8.1,-,N/A,,Scattered Clouds,240,2013-01-14 09:53:00
3:53 AM,3.0,-8.0,60,30.26,10.0,WSW,4.6,-,N/A,,Overcast,250,2013-01-14 10:53:00
4:53 AM,3.9,-7.1,60,30.25,10.0,WSW,9.2,-,N/A,,Overcast,250,2013-01-14 11:53:00
5:53 AM,3.0,-7.1,63,30.27,10.0,WSW,6.9,-,N/A,,Clear,250,2013-01-14 12:53:00
6:53 AM,1.0,-9.0,63,30.29,10.0,WSW,6.9,-,N/A,,Clear,240,2013-01-14 13:53:00
7:53 AM,1.9,-9.0,60,30.31,10.0,SW,8.1,-,N/A,,Clear,230,2013-01-14 14:53:00
8:53 AM,5.0,-7.1,58,30.32,10.0,WSW,8.1,-,N/A,,Clear,250,2013-01-14 15:53:00
9:53 AM,12.0,-4.0,49,30.26,10.0,Calm,Calm,-,N/A,,Clear,0,2013-01-14 16:53:00
10:53 AM,12.0,-2.0,53,30.25,10.0,ENE,3.5,-,N/A,,Clear,60,2013-01-14 17:53:00
11:53 AM,9.0,-0.9,64,30.20,10.0,SSE,9.2,-,N/A,,Clear,160,2013-01-14 18:53:00
12:53 PM,10.9,-0.9,59,30.17,10.0,SE,6.9,-,N/A,,Clear,140,2013-01-14 19:53:00
1:53 PM,10.0,-2.0,58,30.16,10.0,SE,6.9,-,N/A,,Clear,130,2013-01-14 20:53:00
3:53 PM,12.0,-0.9,56,30.14,10.0,Calm,Calm,-,N/A,,Clear,0,2013-01-14 22:53:00
4:53 PM,10.0,-4.0,53,30.16,10.0,Calm,Calm,-,N/A,,Scattered Clouds,0,2013-01-14 23:53:00
5:53 PM,6.1,-6.0,58,30.17,10.0,WSW,4.6,-,N/A,,Mostly Cloudy,250,2013-01-15 00:53:00
6:53 PM,8.1,-8.0,48,30.17,10.0,WSW,8.1,-,N/A,,Clear,240,2013-01-15 01:53:00
7:53 PM,9.0,-9.9,42,30.15,10.0,Variable,4.6,-,N/A,,Partly Cloudy,0,2013-01-15 02:53:00
8:53 PM,12.9,-2.0,51,30.14,10.0,WSW,6.9,-,N/A,,Overcast,250,2013-01-15 03:53:00
9:53 PM,12.9,-0.9,54,30.12,10.0,West,8.1,-,N/A,,Overcast,280,2013-01-15 04:53:00
10:53 PM,14.0,-0.0,54,30.12,10.0,West,3.5,-,N/A,,Overcast,260,2013-01-15 05:53:00
11:53 PM,17.1,-2.0,43,30.12,10.0,Calm,Calm,-,N/A,,Overcast,0,2013-01-15 06:53:00